Home   Weather   Dharmapuri   Past weeks

Flag for India Past Weather in Dharmapuri, Tamil Nadu, India — Yesterday and Last 2 Weeks

Now
75 °F

Passing clouds.


Feels Like: 76 °F
Forecast: 72 / 86 °F
Wind: 9 mph from West

Location: Bangalore / Hindustan

Current Time: Sep 28, 2016 at 10:42:39 PM

Latest Report: Sep 28, 2016 at 9:30 PM


Visibility: N/A

Pressure: 29.89 "Hg

Humidity: 78%

Dew Point: 68 °F

Location of DharmapuriLocation

Past Weather in Dharmapuri — Graph

°F

Dharmapuri Temperature Yesterday

Maximum temperature yesterday: 84 °F (at 3:30 PM)
Minimum temperature yesterday: 72 °F (at 5:30 AM)
Average temperature yesterday: 77 °F

High & Low Weather Summary for the Past Weeks

 TemperatureHumidityPressure
High86 °F (Sep 28, 3:30 PM)100% (Sep 22, 6:30 AM)30.01 "Hg (Sep 22, 6:30 AM)
Low66 °F (Sep 18, 5:30 AM)45% (Sep 18, 4:00 PM)29.74 "Hg (Sep 24, 2:30 PM)
Average76 °F72%29.88 "Hg
* Reported Sep 13 9:30 PM — Sep 28 9:30 PM, Dharmapuri, Weather by CustomWeather, © 2016

Note: Actual official high and low records may vary slightly from our data, if they occured in-between our weather recording intervals... More about our weather records

Advertising

Dharmapuri Weather History for the Previous 24 Hours

Scroll right to see more
 ConditionsComfort  
Time TempWeatherWind HumidityBarometerVisibility
9:30 PM
Wed, Sep 28
75 °FPassing clouds.9 mph78%29.89 "HgN/A
8:30 PM75 °FPassing clouds.9 mph78%29.89 "HgN/A
7:30 PM75 °FPassing clouds.9 mph78%29.86 "HgN/A
6:30 PM77 °FScattered clouds.9 mph74%29.83 "HgN/A
5:30 PM81 °FScattered clouds.7 mph66%29.83 "HgN/A
5:00 PM81 °FScattered clouds.7 mph66%29.80 "HgN/A
4:30 PM82 °FScattered clouds.7 mph62%29.80 "HgN/A
4:00 PM86 °FScattered clouds.7 mph55%29.80 "HgN/A
3:30 PM86 °FScattered clouds.7 mph55%29.80 "HgN/A
3:00 PM84 °FScattered clouds.7 mph58%29.80 "HgN/A
2:30 PM84 °FScattered clouds.7 mph58%29.80 "HgN/A
2:00 PM82 °FBroken clouds.7 mph62%29.83 "Hg5 mi
1:30 PM81 °FBroken clouds.6 mph66%29.86 "Hg5 mi
1:00 PM81 °FBroken clouds.5 mph66%29.86 "Hg5 mi
12:30 PM81 °FBroken clouds.7 mph66%29.89 "Hg5 mi
12:00 PM79 °FBroken clouds.7 mph70%29.89 "Hg5 mi
11:30 AM77 °FBroken clouds.7 mph79%29.92 "Hg5 mi
11:00 AM77 °FBroken clouds.7 mph79%29.95 "Hg5 mi
10:30 AM77 °FBroken clouds.7 mph79%29.95 "Hg5 mi
10:00 AM75 °FBroken clouds.7 mph83%29.95 "Hg5 mi
9:30 AM75 °FBroken clouds.7 mph83%29.95 "Hg5 mi
9:00 AM75 °FBroken clouds.7 mph83%29.95 "Hg4 mi
8:30 AM73 °FBroken clouds.7 mph89%29.95 "Hg4 mi
8:00 AM73 °FBroken clouds.7 mph83%29.92 "Hg4 mi
7:30 AM72 °FBroken clouds.9 mph88%29.92 "HgN/A
7:00 AM72 °FBroken clouds.9 mph88%29.92 "HgN/A
6:30 AM72 °FPartly cloudy.9 mph94%29.89 "HgN/A
6:00 AM72 °FPartly cloudy.7 mph94%29.89 "HgN/A
5:30 AM72 °FPartly cloudy.7 mph94%29.89 "HgN/A
11:30 PM
Tue, Sep 27
72 °FPassing clouds.3 mph100%29.92 "HgN/A
10:30 PM72 °FPassing clouds.No wind94%29.95 "HgN/A
Weather by CustomWeather, © 2016

See weather overviewHow to use our weather pages